Regional Weather Roundup
Issued by NWS

Home | Current Version | Previous Version | Text Only | Print | Product List | Glossary Off
Versions: 1 2 3 4 5 6 7 8 9 10 11 12 13 14 15 16 17 18 19 20 21 22 23 24 25 26 27 28 29 30 31 32 33 34 35 36 37 38 39 40 41 42 43 44 45 46 47 48 49

000
ASUS45 KSLC 231210
RWRUT

UTAH REGIONAL WEATHER ROUNDUP
NATIONAL WEATHER SERVICE SALT LAKE CITY UT
600 AM MDT MON MAY 23 2016

UTZ001>011-023>025-231300-

NORTHERN UTAH

CITY           SKY/WX    TMP DP  RH WIND       PRES   REMARKS
BRIGHAM CITY     N/A     43  38  83 N6G16     29.95S
HILL AFB       PTCLDY    42  34  75 E12       29.94S
LOGAN          CLOUDY    39  38  96 N6        29.96F WCI  35
OGDEN          PTCLDY    42  37  82 E6        29.94S
PROVO AIRPORT  NOT AVBL
SALT LAKE CITY MOCLDY    45  41  86 CALM      29.94R
VERNAL         MOCLDY    38  26  62 W5        29.97S WCI  34
WENDOVER       PTCLDY    48  34  57 W3        29.93S
HEBER CITY     MOCLDY    36  32  87 CALM      29.96S
WEST JORDAN    CLEAR     41  37  87 NW6       29.95R

$$

UTZ012>022-026-027-231300-

SOUTHERN/CENTRAL UTAH

CITY           SKY/WX    TMP DP  RH WIND       PRES   REMARKS
BLANDING       PTCLDY    43  21  42 N8        30.00S
BRYCE CANYON   MOCLDY    31  20  63 W7        29.99F WCI  24
CEDAR CITY     MOCLDY    34  25  69 CALM      29.91S
DELTA          MOCLDY    43  32  65 N7        29.90S
HANKSVILLE     PTCLDY    43  21  42 NW3       29.91S
MILFORD        MOCLDY    38  23  55 W6        29.91R WCI  33
MOAB/CYNLANDS  PTCLDY    53  23  31 CALM      29.88R
PRICE          PTCLDY    45  20  36 CALM      29.93R
ST GEORGE      PTSUNNY   54  18  24 E9        29.87R
KANAB          CLEAR     36  23  60 NE6       29.96S WCI  31

$$

REGIONAL REPORTS     COLORADO/ARIZONA

CITY           SKY/WX    TMP DP  RH WIND       PRES   REMARKS
CRAIG, CO      CLEAR     27  24  89 CALM      30.03S
GRAND JUNCTION CLOUDY    41  24  51 CALM      29.92S
RIFLE          CLOUDY    38  28  67 CALM      29.98F
MONTROSE       CLOUDY    38  27  64 SE5       29.98S WCI  34
CORTEZ         CLOUDY    34  27  75 NE3       29.96R
PAGE, AZ       PTCLDY    53  21  28 CALM      29.88R
GRAND CANYON   CLEAR     27  15  61 CALM      30.00R
KINGMAN        CLEAR     48  18  30 CALM      29.87R
FLAGSTAFF      CLEAR     31  21  66 W3        30.01S

$$

REGIONAL REPORTS    NEVADA/IDAHO/WYOMING

CITY           SKY/WX    TMP DP  RH WIND       PRES   REMARKS
LAS VEGAS, NV  CLEAR     64  29  26 S7        29.76R
ELY            MOCLDY    34  25  69 S6        29.95S WCI  29
ELKO           PTCLDY    39  34  82 SW6       29.92S WCI  35
POCATELLO, ID  CLEAR     37  32  82 CALM      29.95S
BURLEY         CLEAR     37  33  85 CALM      29.93S
EVANSTON, WY   CLOUDY    33  28  81 N3        29.98S
ROCK SPRINGS   CLEAR     32  30  92 SW8       29.99S WCI  25

$$



USA.gov is the U.S. government's official web portal to all federal, state and local government web resources and services.